Cuzco, Peru

5:57 AM -05 on March 26, 2017 (GMT -0500)
Alejandro Velazco Astete

Weather History for SPZO - October, 2012

Change the Weather History Date:

Wednesday, October 3, 2012

  Actual Average Record
Temperature  
Mean Temperature 58 °F -  
Max Temperature 75 °F 70 °F 75 °F (1997)
Min Temperature 40 °F 42 °F 37 °F (2007)
Degree Days  
Heating Degree Days 8    
Growing Degree Days 8 (Base 50)    
Moisture  
Dew Point 35 °F    
Average Humidity 47    
Maximum Humidity 81    
Minimum Humidity 9    
Precipitation  
Precipitation 0.00 in 0.07 in - ()
Sea Level Pressure  
Sea Level Pressure 30.42 in    
Wind  
Wind Speed 3 mph ()    
Max Wind Speed 13 mph    
Max Gust Speed 24 mph    
Visibility 6.2 miles    
Events      
Averages and records for this station are not official NWS values.
T = Trace of Precipitation, MM = Missing Value Source: Averaged Metar Reports

Daily Weather History Graph

Daily Weather History Graph

Search for Another Location

Airport or City:

Trip Planner

Search our weather history database for the weather conditions in past years. The results will help you decide how hot, cold, wet, or windy it might be!

Date:

Astronomy

Oct. 03, 2012 Rise Set
Actual Time 5:29 AM -05 5:44 PM -05
Civil Twilight 5:08 AM -05 6:05 PM -05
Nautical Twilight 4:43 AM -05 6:30 PM -05
Astronomical Twilight 4:18 AM -05 6:55 PM -05
Moon 8:45 PM -05 (10/3) 7:42 AM -05 (10/3)
Length of Visible Light 12h 57m
Length of Day
12h 15m
Waning Gibbous, 88% of the Moon is Illuminated
Oct 3
Waning Gibbous
Oct 8
Last Quarter
Oct 15
New
Oct 21
First Quarter
Oct 29
Full

Hourly Weather History & Observations

Time (-05) Temp. Windchill Dew Point Humidity Pressure Visibility Wind Dir Wind Speed Gust Speed Precip Events Conditions
12:00 AM 50.0 °F - 39.2 °F 66% 30.45 in 6.2 mi Calm Calm - N/A   Clear
1:00 AM 47 °F - 39 °F 66%  in 6 mi 2.3 mph - -   Partly Cloudy
1:00 AM 46.4 °F - 39.2 °F 76% 30.45 in 6.2 mi Variable 2.3 mph - N/A   Clear
2:00 AM 44.6 °F - 39.2 °F 81% 30.45 in 6.2 mi Calm Calm - N/A   Clear
3:00 AM 44.6 °F - 37.4 °F 76% 30.42 in 6.2 mi Calm Calm - N/A   Clear
4:00 AM 44 °F - 38 °F 72%  in 6 mi Calm Calm - -   Partly Cloudy
4:00 AM 44.6 °F - 37.4 °F 76% 30.42 in 6.2 mi Calm Calm - N/A   Partly Cloudy
5:00 AM 42.8 °F - 37.4 °F 81% 30.45 in 6.2 mi Calm Calm - N/A   Partly Cloudy
5:30 AM 42.8 °F 41.1 °F 37.4 °F 81% 30.48 in 6.2 mi East 3.5 mph - N/A   Partly Cloudy
6:00 AM 42.8 °F - 37.4 °F 81% 30.48 in 6.2 mi Calm Calm - N/A   Partly Cloudy
6:30 AM 44.6 °F - 39.2 °F 81% 30.51 in 6.2 mi Variable 1.2 mph - N/A   Partly Cloudy
7:00 AM 48 °F - 40 °F 64%  in 6 mi Calm Calm - -   Haze
7:00 AM 48.2 °F - 39.2 °F 71% 30.51 in 6.2 mi Calm Calm - N/A   Partly Cloudy
7:30 AM 53.6 °F - 39.2 °F 58% 30.51 in 6.2 mi Calm Calm - N/A   Partly Cloudy
8:00 AM 53.6 °F - 39.2 °F 58% 30.51 in 6.2 mi Variable 2.3 mph - N/A   Partly Cloudy
8:30 AM 57.2 °F - 41.0 °F 55% 30.51 in 6.2 mi Variable 1.2 mph - N/A   Partly Cloudy
9:00 AM 59.0 °F - 37.4 °F 45% 30.51 in 6.2 mi Variable 3.5 mph - N/A   Partly Cloudy
9:30 AM 62.6 °F - 35.6 °F 37% 30.48 in 6.2 mi NE 3.5 mph - N/A   Partly Cloudy
10:00 AM 63 °F - 36 °F 25%  in 6 mi 6.9 mph - -   Partly Cloudy
10:00 AM 62.6 °F - 35.6 °F 37% 30.48 in 6.2 mi Variable 6.9 mph - N/A   Partly Cloudy
10:30 AM 64.4 °F - 33.8 °F 32% 30.45 in 6.2 mi East 4.6 mph - N/A   Partly Cloudy
11:00 AM 66.2 °F - 32.0 °F 28% 30.45 in 6.2 mi Variable 5.8 mph - N/A   Partly Cloudy
11:30 AM 69.8 °F - 30.2 °F 23% 30.42 in 6.2 mi Variable 5.8 mph - N/A   Partly Cloudy
12:00 PM 69.8 °F - 26.6 °F 20% 30.39 in 6.2 mi SSW 8.1 mph - N/A   Partly Cloudy
12:30 PM 69.8 °F - 28.4 °F 21% 30.36 in 6.2 mi Variable 4.6 mph - N/A   Scattered Clouds
1:00 PM 72 °F - 26 °F 9%  in 6 mi North 10.4 mph - -   Partly Cloudy
1:00 PM 71.6 °F - 26.6 °F 19% 30.36 in 6.2 mi North 10.4 mph - N/A   Scattered Clouds
1:30 PM 73.4 °F - 21.2 °F 14% 30.33 in 6.2 mi WSW 8.1 mph - N/A   Scattered Clouds
2:00 PM 73.4 °F - 19.4 °F 13% 30.33 in 6.2 mi NW 12.7 mph - N/A   Scattered Clouds
2:30 PM 73.4 °F - 21.2 °F 14% 30.30 in 6.2 mi Variable 9.2 mph - N/A   Scattered Clouds
3:00 PM 73.4 °F - 28.4 °F 19% 30.30 in 6.2 mi North 10.4 mph 24.2 mph N/A   Scattered Clouds
3:30 PM 71.6 °F - 32.0 °F 23% 30.30 in 6.2 mi NNE 11.5 mph - N/A   Mostly Cloudy
4:00 PM 69.8 °F - 33.8 °F 27% 30.30 in 6.2 mi NE 8.1 mph - N/A   Mostly Cloudy
4:30 PM 66.2 °F - 37.4 °F 35% 30.33 in 6.2 mi NNE 12.7 mph - N/A   Scattered Clouds
5:00 PM 64.4 °F - 37.4 °F 37% 30.33 in 6.2 mi North 9.2 mph - N/A   Scattered Clouds
5:30 PM 64.4 °F - 37.4 °F 37% 30.33 in 6.2 mi NNE 6.9 mph - N/A   Scattered Clouds
6:00 PM 62.6 °F - 39.2 °F 42% 30.36 in 6.2 mi North 11.5 mph - N/A   Partly Cloudy
7:00 PM 59 °F - 36 °F 31%  in 6 mi WSW 5.8 mph - -   Partly Cloudy
7:00 PM - - - N/A% - 6.2 mi WSW 5.8 mph - N/A   Unknown
8:00 PM 57.2 °F - 39.2 °F 51% 30.42 in 6.2 mi ESE 3.5 mph - N/A   Clear
9:00 PM 55.4 °F - 41.0 °F 58% 30.45 in 6.2 mi Calm Calm - N/A   Clear
10:00 PM 52 °F - 40 °F 54%  in 6 mi West 5.8 mph - -   Partly Cloudy
10:00 PM 51.8 °F - 41.0 °F 67% 30.48 in 6.2 mi West 5.8 mph - N/A   Clear
11:00 PM 50 °F - 40 °F 60%  in 6 mi Calm Calm - -   Partly Cloudy
11:00 PM 50.0 °F - 39.2 °F 66% 30.48 in 6.2 mi Calm Calm - N/A   Clear